Theta_e
331 332 331 336 336 337 338 337 337 337 337 337 337 336 336 334 333 331 330 331 333 333 333 333 332 333 333 334 330 329 337 341 342 341 341 337 340 339 339 340 341 341 339
319 326 328 332 336 337 337 337 337 337 336 335 335 337 339 338 339 339 337 336 337 336 337 339 339 339 338 330 329 327 331 339 341 341 342 339 338 340 341 340 341 341 340
314 320 325 328 332 334 336 336 337 338 338 338 339 338 338 337 337 338 338 338 338 338 339 339 340 339 337 335 330 328 326 333 340 340 342 340 339 339 341 340 341 341 340
310 316 322 325 326 328 330 331 332 334 335 336 336 336 337 337 338 338 338 337 337 337 339 339 340 339 337 335 333 329 327 329 338 339 340 341 338 338 339 340 340 340 339
304 311 315 316 317 318 320 322 323 327 330 330 331 333 333 333 335 336 336 336 336 336 337 338 339 338 335 335 335 336 329 328 337 340 340 341 339 336 340 343 340 339 339
300 301 306 310 311 311 312 313 314 317 319 322 325 325 326 328 330 330 333 334 334 334 336 337 337 336 335 330 334 335 339 329 329 338 339 340 340 336 338 342 339 339 338
299 298 298 298 304 306 307 308 308 310 312 314 314 316 319 323 325 327 327 329 331 333 334 335 335 335 333 331 328 333 334 336 332 331 338 339 340 336 337 342 341 339 339
297 297 296 296 296 298 301 303 304 305 307 307 307 308 309 308 314 318 318 320 324 327 331 333 333 332 331 330 329 328 332 332 335 330 335 338 339 337 336 340 343 339 339
297 296 296 296 296 295 295 295 297 299 300 301 301 297 297 299 308 304 305 312 313 320 326 328 330 331 329 329 329 328 330 330 331 333 330 337 338 337 337 338 343 340 339
296 295 294 294 294 294 294 294 294 294 294 295 295 295 295 295 296 297 297 299 305 308 316 321 326 328 330 331 328 329 327 328 329 329 332 332 337 338 337 337 340 343 339
294 294 294 293 294 294 293 293 293 294 294 294 295 295 295 295 294 294 295 295 296 298 303 311 318 323 326 327 329 329 329 328 328 328 328 330 333 337 337 336 336 342 339
293 293 293 293 293 293 293 293 293 293 294 294 294 294 294 293 293 293 293 294 294 295 297 301 306 313 318 322 324 326 327 328 328 328 327 326 329 335 337 335 334 337 339
293 293 292 293 293 293 293 293 293 293 293 293 293 293 293 293 293 292 293 293 293 294 295 296 296 297 302 306 315 321 325 327 329 329 327 325 327 330 334 336 335 333 340
293 293 292 292 292 292 292 292 292 292 292 292 292 292 292 292 292 292 291 292 292 293 294 295 295 295 297 298 299 306 318 324 325 328 329 328 325 328 332 333 336 335 338
293 292 292 292 291 292 291 291 291 291 291 291 291 292 292 291 291 291 290 291 291 291 292 293 294 295 297 297 296 297 301 312 322 324 327 329 328 325 328 330 335 335 336
293 292 292 291 291 291 291 291 290 291 290 290 290 290 290 290 289 289 290 289 290 290 291 292 295 295 296 295 295 295 296 299 316 324 325 327 328 327 325 327 333 335 336
292 292 291 291 291 290 290 290 290 290 289 289 289 289 289 289 288 288 287 287 288 287 288 289 292 295 297 296 295 296 296 297 302 316 323 325 327 327 327 324 328 334 335
292 292 291 290 290 290 290 289 289 289 288 288 287 287 288 288 287 287 287 286 286 286 286 288 294 295 295 296 298 298 298 298 297 304 318 322 323 326 328 327 326 330 335
291 291 290 290 290 289 288 288 288 287 287 287 287 286 286 286 286 286 285 285 284 284 285 285 289 294 296 297 298 299 299 299 299 298 307 320 323 323 326 327 325 329 333
291 290 289 289 289 289 288 287 287 287 287 286 286 285 285 286 285 286 286 286 285 283 283 284 285 286 290 296 298 298 298 299 298 299 299 310 318 322 323 325 327 328 331
290 290 289 288 288 288 287 287 286 286 287 286 286 285 285 285 284 285 285 284 284 283 283 283 285 287 289 293 296 297 297 298 299 299 302 301 311 322 321 323 325 328 328
290 289 289 288 287 287 286 285 284 284 285 285 284 284 284 283 283 283 283 282 282 281 282 283 286 288 290 292 295 296 298 297 298 299 301 303 308 319 321 322 324 327 328
289 289 289 287 286 286 285 284 284 283 282 282 282 283 282 282 281 282 282 282 281 280 281 283 281 282 285 288 291 297 297 297 297 302 307 312 315 320 322 322 323 325 328
289 289 288 287 286 285 285 283 282 281 280 281 281 281 281 281 281 281 280 280 279 280 279 279 280 281 283 285 288 291 297 298 297 297 300 304 308 311 314 321 322 323 326
289 288 288 287 285 284 283 282 281 280 280 280 279 279 278 279 279 280 279 279 279 279 278 277 278 279 281 283 285 289 291 296 297 298 298 298 301 304 306 314 321 322 324
288 288 287 286 284 283 282 282 280 279 279 278 279 277 278 277 278 278 278 278 278 277 277 276 277 280 279 280 280 282 288 293 296 297 298 299 300 300 303 306 312 321 322
Wind_Speed
15 15 14 14 9 6 5 5 6 6 6 5 7 8 8 8 7 8 10 11 12 12 13 13 13 12 12 12 12 9 11 10 12 11 11 12 12 12 12 12 13 13 14
8 9 11 12 13 13 9 6 6 6 8 9 9 10 10 10 10 9 9 10 12 14 13 13 14 14 14 15 15 14 13 12 13 13 14 12 12 13 14 14 16 15 16
11 13 13 12 13 12 14 12 10 6 4 7 10 11 13 13 13 13 12 12 12 12 13 14 14 14 16 16 17 16 15 14 13 15 15 14 13 13 15 14 17 18 17
11 12 16 17 18 18 18 16 13 13 13 15 13 12 12 13 15 16 16 16 15 15 15 15 16 16 17 18 18 18 17 16 14 15 17 17 15 15 15 15 18 20 19
15 15 18 18 19 20 20 17 15 11 8 13 17 16 18 17 16 14 16 16 17 18 18 17 17 19 19 18 20 19 18 18 15 15 19 20 18 17 17 18 20 21 22
17 17 17 18 20 22 22 22 21 20 18 17 13 18 18 20 21 19 17 17 18 19 20 20 19 20 21 21 21 22 20 19 18 18 20 22 21 20 18 18 19 23 23
15 16 18 18 19 20 21 21 21 20 20 19 16 14 15 18 20 21 20 19 19 19 20 21 21 22 22 22 23 24 24 23 20 20 21 24 24 22 22 20 22 22 24
13 15 16 18 20 21 21 21 21 21 20 20 21 20 18 16 21 22 23 20 20 20 21 21 24 25 24 24 25 25 25 24 23 23 23 25 27 25 24 25 23 25 25
11 12 14 16 17 18 21 21 21 21 20 20 22 22 19 16 18 21 22 20 24 18 16 16 20 24 27 28 26 27 26 25 26 26 26 26 28 29 27 28 27 28 28
9 11 13 15 17 19 20 21 21 21 21 20 21 23 24 21 21 23 24 23 23 23 20 19 18 20 23 27 29 28 29 29 29 29 28 29 29 31 31 31 31 30 30
11 13 13 15 16 17 18 19 19 20 20 19 20 21 21 23 25 26 26 26 25 24 22 21 21 20 20 22 25 29 31 33 33 32 32 32 32 31 34 34 34 32 32
11 11 12 14 15 16 17 17 18 18 19 18 17 18 21 23 25 25 28 28 27 26 25 23 23 24 22 21 22 27 30 34 37 38 37 35 35 34 35 38 38 35 35
9 10 11 11 13 14 15 15 15 16 16 18 18 19 19 21 25 28 29 32 31 29 28 28 28 29 28 28 25 24 28 33 36 39 42 39 38 37 37 39 39 40 38
9 9 9 10 11 11 12 13 14 15 17 17 18 19 22 24 26 28 31 32 32 31 30 30 30 30 33 32 31 29 28 30 36 34 38 42 42 40 38 39 43 42 41
9 7 7 7 9 8 10 11 12 14 16 17 18 18 19 23 25 27 29 29 32 32 31 32 32 31 31 35 36 35 34 31 33 38 37 39 45 44 42 42 42 45 44
10 8 6 5 6 7 9 10 13 13 15 16 17 18 19 22 22 25 26 28 28 29 31 34 34 34 34 35 37 38 38 36 32 35 38 38 42 47 46 45 44 46 47
9 7 4 4 5 7 8 10 12 12 14 16 16 17 20 23 24 26 26 27 26 30 30 29 33 35 33 35 35 36 38 40 37 33 38 39 37 42 45 46 48 49 50
12 9 5 3 1 4 5 8 9 10 13 14 16 17 21 25 26 28 28 29 28 30 28 25 26 30 36 32 32 34 38 38 42 39 35 40 40 38 40 45 47 51 52
14 12 7 5 3 1 4 8 9 10 13 14 16 19 23 24 27 28 28 30 31 29 29 26 24 25 28 30 31 32 32 34 38 40 40 32 42 43 39 40 47 50 56
15 12 7 5 3 3 6 11 10 12 15 14 16 20 23 25 28 29 31 34 35 32 29 27 26 29 29 30 31 35 35 35 37 40 42 45 37 42 43 41 40 49 57
16 12 7 3 2 5 7 13 13 15 17 17 16 21 23 25 27 28 28 33 34 32 30 29 28 27 26 25 30 31 34 35 36 41 37 44 42 41 43 42 41 42 51
17 12 8 3 4 5 7 10 10 16 12 18 17 23 23 26 26 27 26 31 32 28 22 22 20 24 26 22 24 25 12 21 28 37 39 39 40 39 41 45 44 43 43
17 14 10 4 4 5 8 11 14 13 12 9 21 26 26 27 26 25 26 29 31 25 22 22 29 25 29 25 24 18 6 7 6 14 20 24 29 32 40 42 44 43 44
18 14 11 6 5 6 8 11 12 13 15 18 24 26 28 27 26 27 27 27 29 23 28 25 22 23 24 29 25 30 35 30 11 12 17 19 18 14 22 41 41 43 43
18 15 11 7 6 6 8 10 13 16 18 22 24 27 28 28 28 28 27 28 28 27 28 29 25 26 23 26 28 26 30 32 31 14 16 13 25 27 25 20 38 40 42
19 14 12 7 6 7 9 11 13 16 19 24 28 29 29 30 30 29 27 30 30 29 28 28 27 23 26 29 32 34 30 17 13 13 13 15 14 32 29 30 31 42 41
Wind_Direction
8 11 15 21 18 5 338 322 317 315 306 319 329 330 329 326 322 320 323 324 322 320 316 309 303 301 297 294 286 275 270 272 260 251 247 247 256 244 238 226 225 209 196
16 17 19 25 24 21 17 354 323 313 318 318 319 318 310 312 314 310 311 316 320 322 321 318 314 308 301 292 292 288 272 269 262 258 250 250 252 251 242 229 227 213 200
37 39 42 29 30 32 39 39 40 27 334 320 318 316 312 310 306 301 295 297 300 303 309 311 311 306 301 299 295 290 282 271 262 255 253 247 246 250 244 230 223 209 202
52 59 60 51 43 44 45 42 40 30 24 22 10 352 334 318 311 307 300 298 298 300 301 303 305 303 302 302 300 295 290 277 271 254 248 245 244 248 243 231 215 209 201
62 67 61 53 45 45 44 41 36 30 19 21 19 14 10 4 349 324 311 306 301 302 301 299 299 298 300 298 301 299 295 288 276 260 250 247 248 240 231 223 214 209 204
69 65 64 50 47 45 43 41 38 34 30 27 13 18 12 10 7 358 344 325 310 302 298 297 295 292 294 295 287 291 294 291 281 264 252 249 246 240 231 229 220 212 208
69 63 60 57 50 45 43 41 38 36 35 31 20 3 3 15 11 8 2 353 339 318 305 298 293 292 294 293 291 291 290 286 286 275 258 250 247 237 238 227 223 216 212
72 62 59 54 50 47 44 41 38 36 34 29 25 22 18 7 14 11 6 3 358 347 338 312 295 292 293 291 289 287 288 288 281 276 268 256 247 240 234 228 224 223 216
76 67 60 55 51 47 43 41 37 34 33 32 28 24 17 8 11 4 360 357 359 339 316 313 316 297 296 294 291 288 286 286 283 278 272 263 252 243 235 232 226 222 218
92 78 65 59 54 49 44 41 38 34 30 28 25 23 19 13 4 357 354 352 351 345 336 330 312 314 299 291 291 290 285 283 279 277 273 266 258 247 236 233 231 224 219
81 67 57 52 51 48 46 42 36 33 29 26 24 23 15 10 4 359 357 353 346 336 327 328 326 319 316 306 292 287 287 280 278 275 273 269 261 251 242 233 233 227 221
79 65 49 43 45 44 43 39 35 32 31 31 28 22 15 11 7 358 354 353 347 341 334 334 316 314 316 322 324 306 291 284 278 275 272 270 265 256 247 236 235 232 223
95 72 54 47 41 38 36 34 33 29 28 29 27 21 14 10 4 360 355 352 349 346 338 331 326 321 317 313 307 308 302 290 284 279 273 270 267 258 251 242 235 233 226
109 76 59 47 38 38 34 29 25 23 25 21 20 18 15 11 6 0 355 353 350 346 339 332 327 323 317 310 307 304 295 295 284 276 272 271 268 262 253 249 237 231 228
126 102 75 53 42 36 30 29 25 24 21 16 16 20 17 9 5 1 354 350 346 342 337 328 322 319 313 311 306 303 299 295 286 276 269 266 269 265 258 250 240 231 230
145 121 104 67 45 32 28 21 20 18 15 12 13 16 16 11 8 0 356 350 345 341 332 325 319 314 308 305 305 302 295 293 294 276 269 265 264 265 263 252 242 232 230
153 136 114 71 32 18 16 11 7 7 5 5 5 10 9 11 3 0 356 350 343 336 330 320 316 313 306 304 299 297 298 289 280 291 267 263 258 259 259 257 245 234 229
166 161 145 129 54 8 358 358 353 355 356 358 358 1 3 4 3 358 354 349 338 335 335 326 308 303 303 301 295 294 294 293 284 271 283 259 258 253 255 255 249 239 229
175 171 168 183 191 322 339 342 338 344 350 351 351 354 358 358 358 353 349 347 341 336 330 326 311 301 294 292 291 291 287 284 284 280 265 268 254 255 249 252 251 242 230
178 178 176 181 219 313 322 336 335 335 342 343 347 353 352 351 350 348 346 345 343 333 330 326 312 306 289 287 285 285 283 281 279 274 267 258 266 251 248 246 246 242 235
181 184 181 189 264 284 322 341 337 329 333 336 340 348 347 344 342 342 341 339 339 331 327 321 309 299 292 288 291 287 286 282 274 265 258 257 256 248 245 245 241 239 239
188 188 194 222 266 279 309 324 324 323 319 331 333 340 341 337 336 336 335 332 333 321 303 303 308 304 293 291 274 284 288 291 279 266 249 244 245 247 240 241 237 234 233
189 195 203 228 288 279 296 317 325 334 323 320 327 335 335 331 330 331 330 328 324 307 299 297 296 295 289 288 279 267 277 257 343 304 272 243 241 234 236 233 232 233 229
194 195 205 228 286 280 293 314 327 324 316 321 326 327 326 328 327 327 324 318 314 301 299 305 295 283 285 284 282 272 264 265 269 291 289 282 271 258 272 234 234 228 225
193 196 204 233 291 288 300 317 324 321 324 324 324 324 323 325 324 322 316 312 312 305 300 301 286 280 271 276 277 277 284 255 254 255 274 277 283 276 269 279 225 225 224
190 196 204 240 288 298 311 323 327 319 327 326 329 325 321 318 319 314 308 312 311 300 290 293 284 274 280 273 275 273 267 273 248 244 255 267 268 280 272 277 277 227 224